This is the latest recevied weather packets stored in our database for station/object N3TUQ-2. If no packets are shown the sender has not sent any weather packets the latest 10 day(s).
| Time | Temp. | Humidity | Pressure | Rain* | Wind** | Luminosity | Snow |
|---|---|---|---|---|---|---|---|
| 1788511252 | 19.44° C | 95% | 1013.6 hPa | 0 mm | - | - | - |
| 1788510472 | 19.44° C | 96% | 1013.5 hPa | 0 mm | - | - | - |
| 1788509692 | 18.89° C | 98% | 1013.4 hPa | 0 mm | - | - | - |
| 1788508912 | 18.89° C | 99% | 1013.4 hPa | 0 mm | - | - | - |
| 1788508132 | 18.33° C | 98% | 1013.4 hPa | 0 mm | - | - | - |
| 1788507352 | 18.33° C | 98% | 1013.4 hPa | 0 mm | - | - | - |
| 1788506707 | 18.33° C | 98% | 1013.4 hPa | 0.25 mm | - | - | - |
| 1788506572 | 18.33° C | 98% | 1013.4 hPa | 0.25 mm | - | - | - |
| 1788505792 | 18.33° C | 98% | 1013.3 hPa | 0.25 mm | - | - | - |
| 1788505012 | 17.78° C | 98% | 1013.1 hPa | 0.25 mm | - | - | - |
| 1788504235 | 17.78° C | 98% | 1012.9 hPa | 0.25 mm | - | - | - |
| 1788503452 | 18.33° C | 98% | 1012.6 hPa | 0 mm | - | - | - |
| 1788502672 | 18.33° C | 98% | 1012.6 hPa | 0 mm | - | - | - |
| 1788501892 | 18.89° C | 98% | 1012.7 hPa | 0 mm | - | - | - |
| 1788501112 | 18.89° C | 98% | 1012.8 hPa | 0 mm | - | - | - |
| 1788500331 | 18.89° C | 98% | 1013 hPa | 0 mm | - | - | - |
| 1788499552 | 18.89° C | 98% | 1013 hPa | 0 mm | - | - | - |
| 1788498772 | 18.89° C | 98% | 1013.1 hPa | 0 mm | - | - | - |
| 1788497992 | 18.89° C | 98% | 1013 hPa | 0 mm | - | - | - |
| 1788497212 | 18.89° C | 97% | 1013 hPa | 0 mm | - | - | - |
| 1788496432 | 18.89° C | 97% | 1013 hPa | 0 mm | - | - | - |
| 1788495652 | 19.44° C | 97% | 1013 hPa | 0 mm | - | - | - |
| 1788494879 | 19.44° C | 96% | 1013.2 hPa | 0 mm | - | - | - |
| 1788494125 | 20° C | 96% | 1013.2 hPa | 0 mm | - | - | - |
| 1788494092 | 20° C | 96% | 1013.2 hPa | 0 mm | - | - | - |
* Rain latest hour (hover to see other rain measurements)
** Current wind speed in m/s (hover to see current wind gust speed)